ONEWEB-0006 (44061 NORAD) Tracking and Keplerian Element Data

This shows tracking and keplerian element data for the satellite.

Feedback or suggestion? Click here.




ElementValue
Catalog44061
NameONEWEB-0006
Epoch Orbit300
Epoch Day80.94748224
Epoch Year2019
RAAN65.6679
Inclination87.773
Eccentricity0.0014358
Argument of Perigee177.2584
Mean Anonmoly182.8659
Mean Motion13.70494779
Decay Rate4.7E-07
L11 44061U 19010E 19080.94748224 .00000047 00000-0 36514-4 0 9998
L22 44061 87.7730 65.6679 0014358 177.2584 182.8659 13.70494779 3006

Live tracking and technical data element details for ONEWEB-0006 (NORAD 44061). ONEWEB-0006 can be tracked NOW for your location showing map with azimuth and elevation plus other details from your city location.

Track the satellite on the map from your city or location and see movement details for azimuth, elevation, latitude, longitude, range, height, and movement on the map or in text.







IsCatalogInMostPopularTable: catalog: 44061, numindb: 76
Update: records affected: 1



GetName: 44061 ONEWEB-0006

Hit Count: updated at: Sat, 23 Mar 2019 00:28:35 GMT